Time,TemperatureF,DewpointF,PressureIn,WindDirection,WindDirectionDegrees,WindSpeedMPH,WindSpeedGustMPH,Humidity,HourlyPrecipIn,Conditions,Clouds,dailyrainin,SolarRadiationWatts/m^2,SoftwareType,DateUTC
2013-06-28 00:03:00,78.0,75.0,29.99,SE,136,0.0,-999.0,91,-99.99,,,0.00,0,weatherlink.com 1.10,2013-06-28 04:03:00,
2013-06-28 00:18:00,77.9,76.0,30.00,SE,136,0.0,-999.0,92,-99.99,,,0.00,0,weatherlink.com 1.10,2013-06-28 04:18:00,
2013-06-28 00:33:00,77.8,75.0,29.99,SE,136,0.0,-999.0,92,-99.99,,,0.00,0,weatherlink.com 1.10,2013-06-28 04:33:00,
2013-06-28 00:48:00,77.6,76.0,29.99,SE,136,0.0,-999.0,93,-99.99,,,0.00,0,weatherlink.com 1.10,2013-06-28 04:48:00,
2013-06-28 01:03:00,77.6,76.0,29.99,SE,136,0.0,-999.0,93,-99.99,,,0.00,0,weatherlink.com 1.10,2013-06-28 05:03:00,
2013-06-28 01:18:00,77.5,76.0,29.98,ESE,115,0.0,-999.0,94,-99.99,,,0.00,0,weatherlink.com 1.10,2013-06-28 05:18:00,
2013-06-28 01:33:00,77.3,76.0,29.98,ESE,115,0.0,-999.0,94,-99.99,,,0.00,0,weatherlink.com 1.10,2013-06-28 05:33:00,
2013-06-28 01:48:00,77.0,75.0,29.98,ESE,115,0.0,-999.0,94,-99.99,,,0.00,0,weatherlink.com 1.10,2013-06-28 05:48:00,
2013-06-28 02:03:00,76.9,75.0,29.98,ESE,115,0.0,-999.0,95,-99.99,,,0.00,0,weatherlink.com 1.10,2013-06-28 06:03:00,
2013-06-28 02:18:00,76.7,75.0,29.98,ESE,115,0.0,-999.0,95,-99.99,,,0.00,0,weatherlink.com 1.10,2013-06-28 06:18:00,
2013-06-28 02:33:00,76.6,75.0,29.98,ESE,115,0.0,-999.0,95,-99.99,,,0.00,0,weatherlink.com 1.10,2013-06-28 06:33:00,
2013-06-28 02:49:00,76.5,75.0,29.97,ESE,115,0.0,-999.0,95,-99.99,,,0.00,0,weatherlink.com 1.10,2013-06-28 06:49:00,
2013-06-28 03:04:00,76.5,75.0,29.97,ESE,115,0.0,-999.0,96,-99.99,,,0.00,0,weatherlink.com 1.10,2013-06-28 07:04:00,
2013-06-28 03:18:00,76.6,75.0,29.97,ESE,115,0.0,-999.0,96,-99.99,,,0.00,0,weatherlink.com 1.10,2013-06-28 07:18:00,
2013-06-28 03:34:00,76.7,76.0,29.97,ESE,115,0.0,-999.0,96,-99.99,,,0.00,0,weatherlink.com 1.10,2013-06-28 07:34:00,
2013-06-28 03:49:00,76.8,76.0,29.97,ESE,115,1.0,-999.0,96,-99.99,,,0.00,0,weatherlink.com 1.10,2013-06-28 07:49:00,
2013-06-28 04:04:00,76.6,75.0,29.97,ESE,115,0.0,-999.0,96,-99.99,,,0.00,0,weatherlink.com 1.10,2013-06-28 08:04:00,
2013-06-28 04:19:00,76.5,75.0,29.97,ESE,115,0.0,-999.0,96,-99.99,,,0.00,0,weatherlink.com 1.10,2013-06-28 08:19:00,
2013-06-28 04:34:00,76.5,75.0,29.97,ESE,115,0.0,-999.0,96,-99.99,,,0.00,0,weatherlink.com 1.10,2013-06-28 08:34:00,
2013-06-28 04:49:00,76.5,75.0,29.96,ESE,115,0.0,-999.0,96,-99.99,,,0.00,0,weatherlink.com 1.10,2013-06-28 08:49:00,
2013-06-28 05:04:00,76.4,75.0,29.96,ESE,115,0.0,-999.0,96,-99.99,,,0.00,0,weatherlink.com 1.10,2013-06-28 09:04:00,
2013-06-28 05:19:00,76.3,75.0,29.96,ESE,115,0.0,-999.0,96,-99.99,,,0.00,0,weatherlink.com 1.10,2013-06-28 09:19:00,
2013-06-28 05:34:00,76.2,75.0,29.96,ESE,115,0.0,-999.0,96,-99.99,,,0.00,0,weatherlink.com 1.10,2013-06-28 09:34:00,
2013-06-28 05:49:00,76.2,75.0,29.96,ESE,115,0.0,-999.0,96,-99.99,,,0.00,0,weatherlink.com 1.10,2013-06-28 09:49:00,
2013-06-28 06:04:00,76.1,75.0,29.97,ESE,115,0.0,-999.0,96,-99.99,,,0.00,0,weatherlink.com 1.10,2013-06-28 10:04:00,
2013-06-28 06:19:00,76.1,75.0,29.97,ESE,115,0.0,-999.0,96,-99.99,,,0.00,0,weatherlink.com 1.10,2013-06-28 10:19:00,
2013-06-28 06:34:00,76.0,75.0,29.97,ESE,115,0.0,-999.0,97,-99.99,,,0.00,7,weatherlink.com 1.10,2013-06-28 10:34:00,
2013-06-28 06:49:00,76.4,76.0,29.97,ESE,120,0.0,-999.0,97,-99.99,,,0.00,49,weatherlink.com 1.10,2013-06-28 10:49:00,
2013-06-28 07:04:00,76.8,76.0,29.97,ESE,121,0.0,-999.0,97,-99.99,,,0.00,91,weatherlink.com 1.10,2013-06-28 11:04:00,
2013-06-28 07:19:00,77.9,77.0,29.97,ESE,121,0.0,-999.0,97,-99.99,,,0.00,169,weatherlink.com 1.10,2013-06-28 11:19:00,
2013-06-28 07:34:00,78.8,78.0,29.97,SE,125,0.0,-999.0,97,-99.99,,,0.00,98,weatherlink.com 1.10,2013-06-28 11:34:00,
2013-06-28 07:49:00,79.0,78.0,29.97,SE,125,0.0,-999.0,96,-99.99,,,0.00,98,weatherlink.com 1.10,2013-06-28 11:49:00,
2013-06-28 08:04:00,79.7,78.0,29.97,SE,124,0.0,-999.0,95,-99.99,,,0.00,69,weatherlink.com 1.10,2013-06-28 12:04:00,
2013-06-28 08:19:00,80.6,79.0,29.97,SE,124,0.0,-999.0,93,-99.99,,,0.00,257,weatherlink.com 1.10,2013-06-28 12:19:00,
2013-06-28 08:34:00,81.4,78.0,29.98,ESE,123,0.0,-999.0,90,-99.99,,,0.00,102,weatherlink.com 1.10,2013-06-28 12:34:00,
2013-06-28 08:49:00,80.8,76.0,29.98,SE,139,0.0,-999.0,85,-99.99,,,0.00,76,weatherlink.com 1.10,2013-06-28 12:49:00,
2013-06-28 09:04:00,80.1,76.0,29.98,SW,225,0.0,-999.0,87,-99.99,,,0.00,62,weatherlink.com 1.10,2013-06-28 13:04:00,
2013-06-28 09:19:00,80.0,77.0,29.97,SW,225,0.0,-999.0,89,-99.99,,,0.00,53,weatherlink.com 1.10,2013-06-28 13:19:00,
2013-06-28 09:34:00,79.8,76.0,29.98,SW,224,0.0,-999.0,89,-99.99,,,0.00,70,weatherlink.com 1.10,2013-06-28 13:34:00,
2013-06-28 09:49:00,79.8,76.0,29.98,SW,224,0.0,-999.0,89,-99.99,,,0.00,97,weatherlink.com 1.10,2013-06-28 13:49:00,
2013-06-28 10:04:00,80.1,76.0,29.98,ENE,73,0.0,-999.0,87,-99.99,,,0.00,148,weatherlink.com 1.10,2013-06-28 14:04:00,
2013-06-28 10:19:00,80.3,75.0,29.98,ENE,74,0.0,-999.0,84,-99.99,,,0.00,183,weatherlink.com 1.10,2013-06-28 14:19:00,
2013-06-28 10:34:00,82.9,76.0,29.98,ENE,68,0.0,-999.0,80,-99.99,,,0.00,717,weatherlink.com 1.10,2013-06-28 14:34:00,
2013-06-28 10:49:00,87.9,79.0,29.98,ENE,68,0.0,-999.0,75,-99.99,,,0.00,737,weatherlink.com 1.10,2013-06-28 14:49:00,
2013-06-28 11:04:00,89.7,78.0,29.98,SE,141,0.0,-999.0,69,-99.99,,,0.00,803,weatherlink.com 1.10,2013-06-28 15:04:00,
2013-06-28 11:19:00,90.3,78.0,29.97,SSW,213,0.0,-999.0,68,-99.99,,,0.00,858,weatherlink.com 1.10,2013-06-28 15:19:00,
2013-06-28 11:34:00,89.9,78.0,29.97,WSW,238,0.0,-999.0,67,-99.99,,,0.00,882,weatherlink.com 1.10,2013-06-28 15:34:00,
2013-06-28 11:49:00,89.5,78.0,29.98,SW,229,0.0,-999.0,69,-99.99,,,0.00,295,weatherlink.com 1.10,2013-06-28 15:49:00,
2013-06-28 12:05:00,90.0,79.0,29.97,SW,229,1.0,-999.0,69,-99.99,,,0.00,960,weatherlink.com 1.10,2013-06-28 16:05:00,
2013-06-28 12:19:00,90.6,79.0,29.96,South,191,0.0,-999.0,68,-99.99,,,0.00,970,weatherlink.com 1.10,2013-06-28 16:19:00,
2013-06-28 12:34:00,90.1,79.0,29.96,WNW,290,0.0,-999.0,69,-99.99,,,0.00,1037,weatherlink.com 1.10,2013-06-28 16:34:00,
2013-06-28 12:49:00,90.6,79.0,29.96,WSW,240,0.0,-999.0,69,-99.99,,,0.00,364,weatherlink.com 1.10,2013-06-28 16:49:00,
2013-06-28 13:04:00,90.6,78.0,29.95,South,172,0.0,-999.0,67,-99.99,,,0.00,947,weatherlink.com 1.10,2013-06-28 17:04:00,
2013-06-28 13:19:00,92.0,80.0,29.95,SW,215,0.0,-999.0,67,-99.99,,,0.00,947,weatherlink.com 1.10,2013-06-28 17:19:00,
2013-06-28 13:34:00,91.9,78.0,29.94,South,183,1.0,-999.0,63,-99.99,,,0.00,719,weatherlink.com 1.10,2013-06-28 17:34:00,
2013-06-28 13:49:00,91.9,79.0,29.94,South,184,0.0,-999.0,67,-99.99,,,0.00,904,weatherlink.com 1.10,2013-06-28 17:49:00,
2013-06-28 14:04:00,91.2,79.0,29.93,WSW,248,0.0,-999.0,67,-99.99,,,0.00,995,weatherlink.com 1.10,2013-06-28 18:04:00,
2013-06-28 14:19:00,90.1,79.0,29.94,SSW,194,0.0,-999.0,69,-99.99,,,0.00,1053,weatherlink.com 1.10,2013-06-28 18:19:00,
2013-06-28 14:34:00,91.0,80.0,29.93,SW,229,3.0,-999.0,70,-99.99,,,0.00,1009,weatherlink.com 1.10,2013-06-28 18:34:00,
2013-06-28 14:49:00,91.1,79.0,29.92,SW,236,0.0,-999.0,67,-99.99,,,0.00,1039,weatherlink.com 1.10,2013-06-28 18:49:00,
2013-06-28 15:04:00,91.0,77.0,29.92,SW,230,2.0,-999.0,64,-99.99,,,0.00,295,weatherlink.com 1.10,2013-06-28 19:04:00,
2013-06-28 15:19:00,88.0,77.0,29.92,SW,234,1.0,-999.0,69,-99.99,,,0.00,193,weatherlink.com 1.10,2013-06-28 19:19:00,
2013-06-28 15:34:00,86.6,76.0,29.91,SW,235,1.0,-999.0,71,-99.99,,,0.00,197,weatherlink.com 1.10,2013-06-28 19:34:00,
2013-06-28 15:49:00,86.5,77.0,29.90,WSW,244,0.0,-999.0,73,-99.99,,,0.00,223,weatherlink.com 1.10,2013-06-28 19:49:00,
2013-06-28 16:04:00,87.0,77.0,29.90,SW,233,2.0,-999.0,72,-99.99,,,0.00,517,weatherlink.com 1.10,2013-06-28 20:04:00,
2013-06-28 16:19:00,88.6,78.0,29.89,SW,232,0.0,-999.0,70,-99.99,,,0.00,751,weatherlink.com 1.10,2013-06-28 20:19:00,
2013-06-28 16:34:00,89.4,78.0,29.89,West,263,2.0,-999.0,68,-99.99,,,0.00,721,weatherlink.com 1.10,2013-06-28 20:34:00,
2013-06-28 16:49:00,89.8,78.0,29.89,WSW,248,3.0,-999.0,69,-99.99,,,0.00,290,weatherlink.com 1.10,2013-06-28 20:49:00,
2013-06-28 17:04:00,89.5,78.0,29.89,SW,215,0.0,-999.0,69,-99.99,,,0.00,264,weatherlink.com 1.10,2013-06-28 21:04:00,
2013-06-28 17:19:00,88.2,77.0,29.89,West,259,0.0,-999.0,70,-99.99,,,0.00,339,weatherlink.com 1.10,2013-06-28 21:19:00,
2013-06-28 17:34:00,88.0,78.0,29.88,SW,215,0.0,-999.0,71,-99.99,,,0.00,555,weatherlink.com 1.10,2013-06-28 21:34:00,
2013-06-28 17:49:00,89.8,77.0,29.88,SW,235,0.0,-999.0,67,-99.99,,,0.00,566,weatherlink.com 1.10,2013-06-28 21:49:00,
2013-06-28 18:04:00,90.2,78.0,29.89,SSW,195,0.0,-999.0,67,-99.99,,,0.00,482,weatherlink.com 1.10,2013-06-28 22:04:00,
2013-06-28 18:19:00,90.7,77.0,29.88,SW,234,2.0,-999.0,65,-99.99,,,0.00,388,weatherlink.com 1.10,2013-06-28 22:19:00,
2013-06-28 18:34:00,88.6,76.0,29.89,SW,224,2.0,-999.0,66,-99.99,,,0.00,221,weatherlink.com 1.10,2013-06-28 22:34:00,
2013-06-28 18:49:00,87.2,76.0,29.90,WSW,255,0.0,-999.0,69,-99.99,,,0.00,137,weatherlink.com 1.10,2013-06-28 22:49:00,
2013-06-28 19:04:00,86.5,76.0,29.90,West,265,0.0,-999.0,70,-99.99,,,0.00,93,weatherlink.com 1.10,2013-06-28 23:04:00,
2013-06-28 19:19:00,85.9,76.0,29.90,WNW,288,0.0,-999.0,72,-99.99,,,0.00,88,weatherlink.com 1.10,2013-06-28 23:19:00,
2013-06-28 19:34:00,85.4,75.0,29.90,West,274,1.0,-999.0,72,-99.99,,,0.00,74,weatherlink.com 1.10,2013-06-28 23:34:00,
2013-06-28 19:49:00,85.3,76.0,29.90,West,277,0.0,-999.0,74,-99.99,,,0.00,60,weatherlink.com 1.10,2013-06-28 23:49:00,
2013-06-28 20:04:00,84.8,76.0,29.91,West,264,1.0,-999.0,74,-99.99,,,0.00,25,weatherlink.com 1.10,2013-06-29 00:04:00,
2013-06-28 20:19:00,84.2,76.0,29.91,West,264,0.0,-999.0,76,-99.99,,,0.00,5,weatherlink.com 1.10,2013-06-29 00:19:00,
2013-06-28 20:34:00,83.7,75.0,29.91,WSW,252,0.0,-999.0,76,-99.99,,,0.00,0,weatherlink.com 1.10,2013-06-29 00:34:00,
2013-06-28 20:49:00,83.4,75.0,29.91,WSW,251,0.0,-999.0,76,-99.99,,,0.00,0,weatherlink.com 1.10,2013-06-29 00:49:00,
2013-06-28 21:04:00,83.1,75.0,29.91,WSW,251,0.0,-999.0,76,-99.99,,,0.00,0,weatherlink.com 1.10,2013-06-29 01:04:00,
2013-06-28 21:19:00,82.9,75.0,29.91,WSW,251,0.0,-999.0,76,-99.99,,,0.00,0,weatherlink.com 1.10,2013-06-29 01:19:00,
2013-06-28 21:34:00,82.4,75.0,29.92,WSW,251,0.0,-999.0,77,-99.99,,,0.00,0,weatherlink.com 1.10,2013-06-29 01:34:00,
2013-06-28 21:49:00,82.2,75.0,29.92,WSW,251,0.0,-999.0,78,-99.99,,,0.00,0,weatherlink.com 1.10,2013-06-29 01:49:00,
2013-06-28 22:04:00,82.1,75.0,29.93,WSW,251,0.0,-999.0,79,-99.99,,,0.00,0,weatherlink.com 1.10,2013-06-29 02:04:00,
2013-06-28 22:19:00,81.7,75.0,29.93,WSW,251,0.0,-999.0,80,-99.99,,,0.00,0,weatherlink.com 1.10,2013-06-29 02:19:00,
2013-06-28 22:34:00,81.2,75.0,29.93,WSW,251,0.0,-999.0,82,-99.99,,,0.00,0,weatherlink.com 1.10,2013-06-29 02:34:00,
2013-06-28 22:49:00,80.8,75.0,29.93,WSW,251,0.0,-999.0,83,-99.99,,,0.00,0,weatherlink.com 1.10,2013-06-29 02:49:00,
2013-06-28 23:04:00,80.4,75.0,29.93,WSW,251,0.0,-999.0,84,-99.99,,,0.00,0,weatherlink.com 1.10,2013-06-29 03:04:00,
2013-06-28 23:19:00,80.0,75.0,29.92,WSW,251,0.0,-999.0,84,-99.99,,,0.00,0,weatherlink.com 1.10,2013-06-29 03:19:00,
2013-06-28 23:34:00,79.7,75.0,29.92,WSW,251,0.0,-999.0,85,-99.99,,,0.00,0,weatherlink.com 1.10,2013-06-29 03:34:00,
2013-06-28 23:49:00,79.5,75.0,29.92,WSW,251,0.0,-999.0,86,-99.99,,,0.00,0,weatherlink.com 1.10,2013-06-29 03:49:00,